,,PA_Meas_PMT16A,,PR_Meas_QMR101_102,,RH_Meas_QMH101,,SR_Meas_QMS101,,TA_Meas_QMH101,,GenWind,,GenWind,
time,status,PA,status,PR,status,RH,status,SR,status,TA,status,DirAvg,status,SpdAvg,
2016-09-11, 00:00:04,VALID,915.462,VALID,0,VALID,75.8301,VALID,108.623,VALID,24.9255,VALID,29,VALID,0,
2016-09-11, 00:01:04,VALID,915.488,VALID,0,VALID,75.266,VALID,103.896,VALID,24.8864,VALID,11,VALID,0,
2016-09-11, 00:02:04,VALID,915.527,VALID,0,VALID,75.4185,VALID,99.4905,VALID,24.8688,VALID,14,VALID,0.205859,
2016-09-11, 00:03:04,VALID,915.586,VALID,0,VALID,75.6853,VALID,94.6557,VALID,24.7711,VALID,38,VALID,0.065625,
2016-09-11, 00:04:04,VALID,915.657,VALID,0,VALID,75.4947,VALID,89.6059,VALID,24.6345,VALID,357,VALID,0.801953,
2016-09-11, 00:05:04,VALID,915.717,VALID,0,VALID,75.0068,VALID,84.7711,VALID,24.535,VALID,38,VALID,0.935938,
2016-09-11, 00:06:04,VALID,915.763,VALID,0,VALID,76.7068,VALID,80.5809,VALID,24.4374,VALID,21,VALID,0.252734,
2016-09-11, 00:07:04,VALID,915.791,VALID,0,VALID,74.6104,VALID,77.0353,VALID,24.3611,VALID,12,VALID,0.000390625,
2016-09-11, 00:08:04,VALID,915.824,VALID,0,VALID,75.2355,VALID,73.7046,VALID,24.3221,VALID,326,VALID,0,
2016-09-11, 00:09:04,VALID,915.812,VALID,0,VALID,75.2507,VALID,70.4814,VALID,24.2635,VALID,26,VALID,0.832422,
2016-09-11, 00:10:04,VALID,915.781,VALID,0,VALID,75.0373,VALID,67.5805,VALID,24.2049,VALID,331,VALID,0,
2016-09-11, 00:11:04,VALID,915.727,VALID,0,VALID,76.0512,VALID,64.6796,VALID,24.2049,VALID,38,VALID,0.0746094,
2016-09-11, 00:12:04,VALID,915.704,VALID,0,VALID,75.4718,VALID,61.9935,VALID,24.2245,VALID,2,VALID,1.14492,
2016-09-11, 00:13:04,VALID,915.703,VALID,0,VALID,76.7449,VALID,59.415,VALID,24.1641,VALID,8,VALID,0,
2016-09-11, 00:14:04,VALID,915.708,VALID,0,VALID,77.1795,VALID,56.9438,VALID,24.1659,VALID,360,VALID,0,
2016-09-11, 00:15:04,VALID,915.867,VALID,0,VALID,75.6472,VALID,54.2578,VALID,24.1269,VALID,10,VALID,0.224219,
2016-09-11, 00:16:04,VALID,915.971,VALID,0,VALID,75.9292,VALID,51.8941,VALID,24.0488,VALID,351,VALID,0.859766,
2016-09-11, 00:17:04,VALID,916.063,VALID,0,VALID,75.388,VALID,49.6378,VALID,23.9725,VALID,357,VALID,0.921875,
2016-09-11, 00:18:04,VALID,916.5,VALID,0,VALID,75.3575,VALID,47.5964,VALID,23.8926,VALID,23,VALID,1.9332,
2016-09-11, 00:19:04,VALID,915.615,VALID,0,VALID,74.6027,VALID,45.9848,VALID,23.834,VALID,4,VALID,1.71406,
2016-09-11, 00:20:04,VALID,916.568,VALID,0,VALID,75.4794,VALID,44.3732,VALID,23.795,VALID,18,VALID,0.00117188,
2016-09-11, 00:21:04,VALID,915.274,VALID,0,VALID,75.5404,VALID,42.7616,VALID,23.7578,VALID,3,VALID,1.73164,
2016-09-11, 00:22:04,VALID,916.006,VALID,0,VALID,76.4705,VALID,41.6872,VALID,23.6797,VALID,2,VALID,0.0421875,
2016-09-11, 00:24:04,VALID,916.438,VALID,0,VALID,76.6916,VALID,39.3235,VALID,23.4827,VALID,8,VALID,0.590625,
2016-09-11, 13:59:04,VALID,916.089,VALID,0,INVALID,115.502,VALID,98.4161,VALID,19.0218,VALID,148,VALID,0,
2016-09-11, 14:00:04,VALID,917.442,VALID,0,INVALID,115.693,VALID,101.424,VALID,19.0037,VALID,144,VALID,0,
2016-09-11, 14:01:04,VALID,919.215,VALID,0,INVALID,115.769,VALID,104.325,VALID,19.0427,VALID,132,VALID,0,
2016-09-11, 14:02:04,VALID,919.234,VALID,0,INVALID,115.739,VALID,107.226,VALID,19.1597,VALID,116,VALID,0,
2016-09-11, 14:03:04,VALID,918.268,VALID,0,INVALID,115.784,VALID,110.45,VALID,19.2363,VALID,116,VALID,0,
2016-09-11, 14:04:04,VALID,917.958,VALID,0,INVALID,115.884,VALID,113.78,VALID,19.3742,VALID,117,VALID,0,
2016-09-11, 14:05:04,VALID,917.943,VALID,0,INVALID,116.013,VALID,117.003,VALID,19.4508,VALID,115,VALID,0,
2016-09-11, 14:06:04,VALID,917.941,VALID,0,INVALID,116.227,VALID,120.334,VALID,19.5498,VALID,107,VALID,0,
2016-09-11, 14:07:04,VALID,917.94,VALID,0,INVALID,116.341,VALID,123.665,VALID,19.6653,VALID,107,VALID,0,
2016-09-11, 14:08:04,VALID,917.962,VALID,0,INVALID,116.73,VALID,126.673,VALID,19.7238,VALID,108,VALID,0,
2016-09-11, 14:09:04,VALID,917.956,VALID,0,INVALID,117.019,VALID,130.326,VALID,19.8213,VALID,112,VALID,0,
2016-09-11, 14:10:04,VALID,917.989,VALID,0,INVALID,117.317,VALID,133.549,VALID,19.9188,VALID,112,VALID,0,
2016-09-11, 14:11:04,VALID,917.973,VALID,0,INVALID,117.645,VALID,136.665,VALID,19.9968,VALID,112,VALID,0,
2016-09-11, 14:12:04,VALID,917.988,VALID,0,INVALID,117.858,VALID,139.996,VALID,20.1919,VALID,110,VALID,0,
2016-09-11, 14:13:04,VALID,918.016,VALID,0,INVALID,118.399,VALID,143.004,VALID,20.2894,VALID,104,VALID,0,
2016-09-11, 14:14:04,VALID,918.013,VALID,0,INVALID,118.666,VALID,146.227,VALID,20.3869,VALID,104,VALID,0,
2016-09-11, 14:15:04,VALID,918.026,VALID,0,INVALID,118.559,VALID,149.236,VALID,20.4064,VALID,105,VALID,0,
2016-09-11, 14:16:04,VALID,918.034,VALID,0,INVALID,117.919,VALID,152.674,VALID,20.4259,VALID,104,VALID,0,
2016-09-11, 14:17:04,VALID,918.022,VALID,0,INVALID,117.606,VALID,156.005,VALID,20.5235,VALID,104,VALID,0,
2016-09-11, 14:18:04,VALID,918.023,VALID,0,INVALID,116.936,VALID,159.55,VALID,20.5414,VALID,104,VALID,0,
2016-09-11, 14:19:04,VALID,918.02,VALID,0,INVALID,116.547,VALID,162.666,VALID,20.5609,VALID,104,VALID,0,
2016-09-11, 14:20:04,VALID,918.028,VALID,0,INVALID,116.501,VALID,166.104,VALID,20.639,VALID,104,VALID,0,
2016-09-11, 14:21:04,VALID,918.056,VALID,0,INVALID,116.623,VALID,169.22,VALID,20.756,VALID,104,VALID,0,
2016-09-11, 14:22:04,VALID,918.054,VALID,0,INVALID,116.471,VALID,173.41,VALID,20.8925,VALID,105,VALID,0,
2016-09-11, 14:23:04,VALID,918.098,VALID,0,INVALID,115.685,VALID,176.741,VALID,21.0486,VALID,108,VALID,0,
2016-09-11, 14:24:04,VALID,918.127,VALID,0,INVALID,114.641,VALID,180.071,VALID,21.0681,VALID,129,VALID,0,
2016-09-11, 14:25:04,VALID,918.091,VALID,0,INVALID,113.718,VALID,183.402,VALID,21.1461,VALID,122,VALID,0,
2016-09-11, 14:26:04,VALID,918.139,VALID,0,INVALID,112.857,VALID,187.162,VALID,21.2437,VALID,122,VALID,0,
2016-09-11, 14:27:04,VALID,918.138,VALID,0,INVALID,111.927,VALID,190.815,VALID,21.4014,VALID,122,VALID,0,
2016-09-11, 14:28:04,VALID,918.139,VALID,0,VALID,97.3663,VALID,194.468,VALID,21.5575,VALID,119,VALID,0,
2016-09-11, 14:29:04,VALID,918.157,VALID,0,VALID,92.1137,VALID,198.766,VALID,21.6144,VALID,116,VALID,0,
2016-09-11, 14:30:04,VALID,918.132,VALID,0,VALID,91.2828,VALID,202.849,VALID,21.6746,VALID,116,VALID,0,
2016-09-11, 14:31:04,VALID,918.127,VALID,0,VALID,97.1299,VALID,206.287,VALID,21.7136,VALID,137,VALID,0,
2016-09-11, 14:32:04,VALID,918.146,VALID,0,VALID,103.473,VALID,210.047,VALID,21.712,VALID,143,VALID,0,
2016-09-11, 14:33:04,VALID,918.194,VALID,0,VALID,98.2125,VALID,214.238,VALID,21.6534,VALID,138,VALID,0,
2016-09-11, 14:34:04,VALID,918.183,VALID,0,VALID,104,VALID,217.998,VALID,21.6924,VALID,138,VALID,0,
2016-09-11, 14:35:04,VALID,918.231,VALID,0,VALID,102.146,VALID,221.221,VALID,21.8485,VALID,138,VALID,0,
2016-09-11, 14:36:04,VALID,918.195,VALID,0,VALID,94.1034,VALID,225.089,VALID,22.003,VALID,138,VALID,0,
2016-09-11, 14:37:04,VALID,918.187,VALID,0,VALID,93.1048,VALID,229.494,VALID,22.2388,VALID,121,VALID,0,
2016-09-11, 14:38:04,VALID,918.194,VALID,0,VALID,90.1088,VALID,233.255,VALID,22.473,VALID,104,VALID,0,
2016-09-11, 14:39:04,VALID,918.192,VALID,0,VALID,87.9666,VALID,237.338,VALID,22.5884,VALID,99,VALID,0,
2016-09-11, 14:40:04,VALID,918.2,VALID,0,VALID,90.0021,VALID,241.85,VALID,22.647,VALID,47,VALID,0,
2016-09-11, 14:41:04,VALID,918.214,VALID,0,VALID,84.1168,VALID,245.933,VALID,22.647,VALID,16,VALID,0,
2016-09-11, 14:42:04,VALID,918.199,VALID,0,VALID,86.2056,VALID,250.23,VALID,22.7658,VALID,21,VALID,0,
2016-09-11, 14:43:04,VALID,918.181,VALID,0,VALID,83.6822,VALID,253.669,VALID,22.725,VALID,353,VALID,0,
2016-09-11, 14:44:04,VALID,918.188,VALID,0,VALID,84.5132,VALID,257.751,VALID,22.7658,VALID,22,VALID,0,
2016-09-11, 14:45:04,VALID,918.238,VALID,0,VALID,86.8231,VALID,261.404,VALID,22.7463,VALID,1,VALID,0,
2016-09-11, 14:46:04,VALID,918.247,VALID,0,VALID,87.2805,VALID,265.917,VALID,22.6877,VALID,23,VALID,0,
2016-09-11, 14:47:04,VALID,918.256,VALID,0,VALID,93.0743,VALID,269.462,VALID,22.7463,VALID,23,VALID,0,
2016-09-11, 14:48:04,VALID,918.259,VALID,0,VALID,88.424,VALID,272.578,VALID,22.8829,VALID,23,VALID,0,
2016-09-11, 14:49:04,VALID,918.281,VALID,0,VALID,86.419,VALID,276.876,VALID,22.9983,VALID,12,VALID,0,
2016-09-11, 14:50:04,VALID,918.276,VALID,0,VALID,84.2464,VALID,279.884,VALID,23.1544,VALID,12,VALID,0,
2016-09-11, 14:51:04,VALID,918.302,VALID,0,VALID,82.8437,VALID,283.967,VALID,23.1739,VALID,12,VALID,0,
2016-09-11, 14:52:04,VALID,918.307,VALID,0,VALID,80.0001,VALID,287.942,VALID,23.1367,VALID,330,VALID,0,
2016-09-11, 14:53:04,VALID,918.326,VALID,0,VALID,81.2732,VALID,292.133,VALID,22.9397,VALID,335,VALID,0,
2016-09-11, 14:54:04,VALID,918.345,VALID,0,VALID,82.3939,VALID,294.711,VALID,22.8421,VALID,335,VALID,0,
2016-09-11, 14:55:04,VALID,918.342,VALID,0,VALID,84.2235,VALID,299.009,VALID,22.9007,VALID,335,VALID,0,
2016-09-11, 14:56:04,VALID,918.325,VALID,0,VALID,80.9607,VALID,302.662,VALID,23.0356,VALID,3,VALID,0,
2016-09-11, 14:57:04,VALID,918.315,VALID,0,VALID,79.6876,VALID,306.207,VALID,23.2307,VALID,1,VALID,0,
2016-09-11, 14:58:04,VALID,918.34,VALID,0,VALID,80.8311,VALID,310.505,VALID,23.3691,VALID,6,VALID,0,
2016-09-11, 14:59:04,VALID,918.343,VALID,0,VALID,80.0916,VALID,314.803,VALID,23.4259,VALID,10,VALID,0,
2016-09-11, 15:00:04,VALID,918.33,VALID,0,VALID,78.1171,VALID,319.208,VALID,23.4454,VALID,84,VALID,0,
2016-09-11, 15:01:04,VALID,918.358,VALID,0,VALID,79.3064,VALID,322.431,VALID,23.2698,VALID,35,VALID,0,
2016-09-11, 15:02:04,VALID,918.396,VALID,0,VALID,78.3763,VALID,326.084,VALID,23.1527,VALID,57,VALID,0,
2016-09-11, 15:03:04,VALID,918.372,VALID,0,VALID,79.0091,VALID,329.522,VALID,23.1154,VALID,21,VALID,0.490625,
2016-09-11, 15:04:04,VALID,918.391,VALID,0,VALID,77.4768,VALID,333.068,VALID,23.0178,VALID,16,VALID,1.05117,
2016-09-11, 15:05:04,VALID,918.373,VALID,0,VALID,77.149,VALID,336.291,VALID,22.8794,VALID,65,VALID,0,
2016-09-11, 15:06:04,VALID,918.341,VALID,0,VALID,80.671,VALID,339.621,VALID,22.8209,VALID,58,VALID,0.000390625,
2016-09-11, 15:07:04,VALID,918.377,VALID,0,VALID,79.0472,VALID,342.845,VALID,22.7623,VALID,49,VALID,1.01719,
2016-09-11, 15:08:04,VALID,918.385,VALID,0,VALID,79.9696,VALID,345.746,VALID,22.7216,VALID,49,VALID,0.40625,
2016-09-11, 15:09:04,VALID,918.375,VALID,0,VALID,80.2441,VALID,350.473,VALID,22.7623,VALID,3,VALID,1.35898,
2016-09-11, 15:10:04,VALID,918.408,VALID,0,VALID,78.9328,VALID,354.448,VALID,22.7818,VALID,30,VALID,0,
2016-09-11, 15:11:04,VALID,918.372,VALID,0,VALID,77.9647,VALID,357.134,VALID,22.8014,VALID,11,VALID,0,
2016-09-11, 15:12:04,VALID,918.402,VALID,0,VALID,77.5454,VALID,362.184,VALID,22.8989,VALID,23,VALID,0,
2016-09-11, 15:13:04,VALID,918.386,VALID,0,VALID,78.1629,VALID,365.192,VALID,22.9202,VALID,5,VALID,0,
2016-09-11, 15:14:04,VALID,918.401,VALID,0,VALID,77.1185,VALID,369.168,VALID,23.016,VALID,359,VALID,0,
2016-09-11, 15:15:04,VALID,918.422,VALID,0,VALID,76.3028,VALID,373.573,VALID,23.2307,VALID,2,VALID,0,
2016-09-11, 15:16:04,VALID,918.394,VALID,0,VALID,75.6319,VALID,377.011,VALID,23.307,VALID,14,VALID,0,
2016-09-11, 15:17:04,VALID,918.439,VALID,0,VALID,76.562,VALID,380.557,VALID,23.2893,VALID,20,VALID,0,
2016-09-11, 15:18:04,VALID,918.457,VALID,0,VALID,76.0436,VALID,384.317,VALID,23.2698,VALID,24,VALID,0,
2016-09-11, 15:19:04,VALID,918.428,VALID,0,VALID,75.7234,VALID,387.11,VALID,23.307,VALID,24,VALID,0,
2016-09-11, 15:20:04,VALID,918.431,VALID,0,VALID,75.7615,VALID,391.193,VALID,23.4064,VALID,25,VALID,0,
2016-09-11, 15:21:04,VALID,918.394,VALID,0,VALID,75.388,VALID,393.987,VALID,23.4454,VALID,340,VALID,0,
2016-09-11, 15:22:04,VALID,918.362,VALID,0,VALID,74.6332,VALID,397.747,VALID,23.543,VALID,354,VALID,0,
2016-09-11, 15:23:04,VALID,918.375,VALID,0,VALID,75.5862,VALID,401.185,VALID,23.6016,VALID,12,VALID,0,
2016-09-11, 15:24:04,VALID,918.347,VALID,0,VALID,73.0399,VALID,404.946,VALID,23.6779,VALID,345,VALID,0,
2016-09-11, 15:25:04,VALID,918.355,VALID,0,VALID,74.5875,VALID,409.673,VALID,23.6797,VALID,350,VALID,0,
2016-09-11, 15:26:04,VALID,918.358,VALID,0,VALID,75.4642,VALID,412.574,VALID,23.6974,VALID,11,VALID,0,
2016-09-11, 15:27:04,VALID,918.374,VALID,0,VALID,73.0933,VALID,416.979,VALID,23.8731,VALID,12,VALID,0,
2016-09-11, 15:28:04,VALID,918.381,VALID,0,VALID,70.0439,VALID,420.525,VALID,23.9689,VALID,26,VALID,0.472266,
2016-09-11, 15:29:04,VALID,918.394,VALID,0,VALID,68.3058,VALID,424.178,VALID,23.8926,VALID,20,VALID,0,
2016-09-11, 15:30:04,VALID,918.397,VALID,0,VALID,72.1709,VALID,426.864,VALID,23.834,VALID,49,VALID,0,
2016-09-11, 15:31:04,VALID,918.421,VALID,0,VALID,71.8202,VALID,429.657,VALID,23.9121,VALID,21,VALID,0,
2016-09-11, 15:32:04,VALID,918.413,VALID,0,VALID,70.4404,VALID,434.277,VALID,24.0488,VALID,345,VALID,0,
2016-09-11, 15:33:04,VALID,918.385,VALID,0,VALID,69.9906,VALID,438.467,VALID,24.1836,VALID,329,VALID,0.486328,
2016-09-11, 15:34:04,VALID,918.408,VALID,0,VALID,70.7529,VALID,441.691,VALID,24.086,VALID,300,VALID,0,
2016-09-11, 15:35:04,VALID,918.402,VALID,0,VALID,70.2955,VALID,444.914,VALID,24.1055,VALID,340,VALID,0,
2016-09-11, 15:36:04,VALID,918.389,VALID,0,VALID,69.9982,VALID,448.244,VALID,24.2031,VALID,337,VALID,0,
2016-09-11, 15:37:04,VALID,918.362,VALID,0,VALID,71.7745,VALID,451.145,VALID,24.1641,VALID,32,VALID,0,
2016-09-11, 15:38:04,VALID,918.359,VALID,0,VALID,72.0184,VALID,453.831,VALID,24.2635,VALID,20,VALID,0,
2016-09-11, 15:39:04,VALID,918.379,VALID,0,VALID,68.6946,VALID,458.129,VALID,24.3202,VALID,341,VALID,0,
2016-09-11, 15:40:04,VALID,918.401,VALID,0,VALID,70.2727,VALID,461.137,VALID,24.2617,VALID,12,VALID,0,
2016-09-11, 15:41:04,VALID,918.439,VALID,0,VALID,71.3247,VALID,463.501,VALID,24.1659,VALID,311,VALID,0,
2016-09-11, 15:42:04,VALID,918.467,VALID,0,VALID,71.5153,VALID,467.047,VALID,23.9512,VALID,304,VALID,0,
2016-09-11, 15:43:04,VALID,918.503,VALID,0,VALID,71.6601,VALID,470.807,VALID,23.9884,VALID,305,VALID,0,
2016-09-11, 15:44:04,VALID,918.492,VALID,0,VALID,72.4758,VALID,474.782,VALID,24.1055,VALID,14,VALID,0,
2016-09-11, 15:45:04,VALID,918.476,VALID,0,VALID,73.1086,VALID,478.435,VALID,24.2812,VALID,12,VALID,0,
2016-09-11, 15:46:04,VALID,918.448,VALID,0,VALID,72.9942,VALID,480.692,VALID,24.4392,VALID,342,VALID,0,
2016-09-11, 15:47:04,VALID,918.48,VALID,0,VALID,70.5318,VALID,484.882,VALID,24.4959,VALID,344,VALID,0,
2016-09-11, 15:48:04,VALID,918.479,VALID,0,VALID,70.9435,VALID,487.998,VALID,24.574,VALID,342,VALID,0,
2016-09-11, 15:49:04,VALID,918.538,VALID,0,VALID,69.3273,VALID,490.039,VALID,24.6716,VALID,341,VALID,0,
2016-09-11, 15:50:04,VALID,918.577,VALID,0,VALID,67.8484,VALID,493.692,VALID,24.7302,VALID,337,VALID,0,
2016-09-11, 15:51:04,VALID,918.624,VALID,0,VALID,67.5587,VALID,496.271,VALID,24.7869,VALID,337,VALID,0,
2016-09-11, 15:52:04,VALID,918.621,VALID,0,VALID,66.7278,VALID,498.527,VALID,24.8278,VALID,327,VALID,0,
2016-09-11, 15:53:04,VALID,918.656,VALID,0,VALID,68.809,VALID,501.643,VALID,24.7674,VALID,344,VALID,0,
2016-09-11, 15:54:04,VALID,918.698,VALID,0,VALID,67.4291,VALID,504.221,VALID,24.8455,VALID,2,VALID,0,
2016-09-11, 15:55:04,VALID,918.704,VALID,0,VALID,68.7937,VALID,507.23,VALID,24.865,VALID,360,VALID,0,
2016-09-11, 15:56:04,VALID,918.725,VALID,0,VALID,67.1242,VALID,511.635,VALID,24.7674,VALID,287,VALID,0,
2016-09-11, 15:57:04,VALID,918.712,VALID,0,VALID,67.9551,VALID,514.321,VALID,24.7869,VALID,289,VALID,0,
2016-09-11, 15:58:04,VALID,918.745,VALID,0,VALID,66.6439,VALID,517.651,VALID,24.9236,VALID,289,VALID,0,
2016-09-11, 15:59:04,VALID,918.724,VALID,0,VALID,67.269,VALID,520.015,VALID,25.1012,VALID,38,VALID,0,
2016-09-11, 16:00:04,VALID,918.708,VALID,0,VALID,65.5461,VALID,524.635,VALID,25.2769,VALID,335,VALID,0,
2016-09-11, 16:01:04,VALID,918.675,VALID,0,VALID,64.7304,VALID,527.751,VALID,25.1969,VALID,38,VALID,0.559375,
2016-09-11, 16:02:04,VALID,918.714,VALID,0,VALID,67.0861,VALID,529.47,VALID,25.1383,VALID,325,VALID,0.0992187,
2016-09-11, 16:03:04,VALID,918.674,VALID,0,VALID,67.4062,VALID,533.23,VALID,25.0798,VALID,318,VALID,0.000390625,
2016-09-11, 16:04:04,VALID,918.662,VALID,0,VALID,62.4129,VALID,537.421,VALID,24.8064,VALID,300,VALID,0,
2016-09-11, 16:05:04,VALID,918.58,VALID,0,VALID,65.104,VALID,539.247,VALID,24.5136,VALID,292,VALID,0,
2016-09-11, 16:06:04,VALID,918.569,VALID,0,VALID,66.7278,VALID,543.975,VALID,24.3751,VALID,293,VALID,0,
2016-09-11, 16:07:04,VALID,918.59,VALID,0,VALID,68.8166,VALID,547.413,VALID,24.455,VALID,330,VALID,0,
2016-09-11, 16:08:04,VALID,918.571,VALID,0,VALID,68.3439,VALID,551.603,VALID,24.6326,VALID,319,VALID,0,
2016-09-11, 16:09:04,VALID,918.625,VALID,0,VALID,67.0861,VALID,553.644,VALID,24.7497,VALID,258,VALID,0,
2016-09-11, 16:10:04,VALID,918.666,VALID,0,VALID,68.5803,VALID,556.975,VALID,24.7888,VALID,259,VALID,0,
2016-09-11, 16:11:04,VALID,918.683,VALID,0,VALID,67.6426,VALID,557.297,VALID,25.0212,VALID,283,VALID,0,
2016-09-11, 16:12:04,VALID,918.673,VALID,0,VALID,66.6134,VALID,562.24,VALID,25.316,VALID,348,VALID,0,
2016-09-11, 16:13:04,VALID,918.646,VALID,0,VALID,65.7215,VALID,566.645,VALID,25.4917,VALID,347,VALID,0.383594,
2016-09-11, 16:14:04,VALID,918.675,VALID,0,VALID,62.2833,VALID,568.793,VALID,25.4683,VALID,26,VALID,0,
2016-09-11, 16:15:04,VALID,918.652,VALID,0,VALID,63.1752,VALID,572.554,VALID,25.4098,VALID,9,VALID,0.00195313,
2016-09-11, 16:16:04,VALID,918.656,VALID,0,VALID,63.9147,VALID,576.529,VALID,25.4507,VALID,358,VALID,0,
2016-09-11, 16:17:04,VALID,918.64,VALID,0,VALID,64.8143,VALID,579.86,VALID,25.5484,VALID,33,VALID,0.0644531,
2016-09-11, 16:18:04,VALID,918.686,VALID,0,VALID,60.9949,VALID,582.009,VALID,25.4293,VALID,350,VALID,1.21992,
2016-09-11, 16:19:04,VALID,918.652,VALID,0,VALID,65.2336,VALID,584.158,VALID,25.3141,VALID,351,VALID,0.503125,
2016-09-11, 16:20:04,VALID,918.651,VALID,0,VALID,63.8461,VALID,586.306,VALID,25.2536,VALID,2,VALID,0.859766,
2016-09-11, 16:21:04,VALID,918.649,VALID,0,VALID,64.0596,VALID,589.637,VALID,25.275,VALID,19,VALID,0,
2016-09-11, 16:22:04,VALID,918.667,VALID,0,VALID,64.3721,VALID,591.678,VALID,25.2731,VALID,341,VALID,0.375,
2016-09-11, 16:23:04,VALID,918.629,VALID,0,VALID,62.1918,VALID,595.761,VALID,25.2145,VALID,25,VALID,1.06523,
2016-09-11, 16:24:04,VALID,918.647,VALID,0,VALID,60.9873,VALID,594.902,VALID,25.1559,VALID,317,VALID,0.536328,
2016-09-11, 16:25:04,VALID,918.641,VALID,0,VALID,63.6708,VALID,601.026,VALID,24.9998,VALID,9,VALID,1.3,
2016-09-11, 16:26:04,VALID,918.653,VALID,0,VALID,66.2399,VALID,603.712,VALID,25.0193,VALID,353,VALID,0.0417969,
2016-09-11, 16:27:04,VALID,918.631,VALID,0,VALID,65.8434,VALID,604.034,VALID,25.0993,VALID,10,VALID,0.766406,
2016-09-11, 16:28:04,VALID,918.685,VALID,0,VALID,65.0735,VALID,607.472,VALID,25.0583,VALID,2,VALID,0.658594,
2016-09-11, 16:29:04,VALID,918.673,VALID,0,VALID,65.447,VALID,610.481,VALID,25.0974,VALID,356,VALID,0.807422,
2016-09-11, 16:30:04,VALID,918.735,VALID,0,VALID,64.799,VALID,612.844,VALID,25.1169,VALID,13,VALID,0.000390625,
2016-09-11, 16:31:04,VALID,918.802,VALID,0,VALID,66.1408,VALID,615.53,VALID,25.3317,VALID,14,VALID,0,
2016-09-11, 16:32:04,VALID,918.849,VALID,0,VALID,64.0672,VALID,617.249,VALID,25.4879,VALID,26,VALID,0.223047,
2016-09-11, 16:33:04,VALID,918.847,VALID,0,VALID,62.9008,VALID,618.754,VALID,25.6441,VALID,14,VALID,0,
2016-09-11, 16:34:04,VALID,918.893,VALID,0,VALID,63.2972,VALID,621.44,VALID,25.7612,VALID,11,VALID,0,
2016-09-11, 16:35:04,VALID,918.875,VALID,0,VALID,62.1385,VALID,623.696,VALID,25.6636,VALID,339,VALID,0.135937,
2016-09-11, 16:36:04,VALID,918.862,VALID,0,VALID,62.2223,VALID,626.704,VALID,25.5269,VALID,292,VALID,0,
2016-09-11, 16:37:04,VALID,918.825,VALID,0,VALID,66.034,VALID,629.927,VALID,25.5269,VALID,10,VALID,0,
2016-09-11, 16:38:04,VALID,918.827,VALID,0,VALID,64.4102,VALID,635.729,VALID,25.7026,VALID,345,VALID,0,
2016-09-11, 16:39:04,VALID,918.804,VALID,0,VALID,61.2008,VALID,639.06,VALID,25.8979,VALID,346,VALID,0,
2016-09-11, 16:40:04,VALID,918.748,VALID,0,VALID,61.9326,VALID,644.325,VALID,25.8198,VALID,10,VALID,0.0824219,
2016-09-11, 16:41:04,VALID,918.743,VALID,0,VALID,61.3228,VALID,644.539,VALID,25.7202,VALID,25,VALID,0,
2016-09-11, 16:42:04,VALID,918.686,VALID,0,VALID,61.8869,VALID,642.176,VALID,25.7612,VALID,12,VALID,0,
2016-09-11, 16:43:04,VALID,918.699,VALID,0,VALID,61.2618,VALID,641.639,VALID,25.9174,VALID,329,VALID,0,
2016-09-11, 16:44:04,VALID,918.658,VALID,0,VALID,62.9313,VALID,648.192,VALID,25.8589,VALID,354,VALID,0,
2016-09-11, 16:45:04,VALID,918.707,VALID,0,VALID,63.6479,VALID,658.292,VALID,25.8764,VALID,21,VALID,0,
2016-09-11, 16:46:04,VALID,918.701,VALID,0,VALID,62.2299,VALID,658.507,VALID,25.9565,VALID,49,VALID,0,
2016-09-11, 16:47:04,VALID,918.741,VALID,0,VALID,61.5972,VALID,660.763,VALID,26.0151,VALID,36,VALID,0,
2016-09-11, 16:48:04,VALID,918.709,VALID,0,VALID,58.4716,VALID,665.168,VALID,25.9545,VALID,281,VALID,0,
2016-09-11, 16:49:04,VALID,918.728,VALID,0,VALID,62.4815,VALID,664.523,VALID,25.8003,VALID,21,VALID,0.348047,
2016-09-11, 16:50:04,VALID,918.749,VALID,0,VALID,60.7205,VALID,670.97,VALID,25.937,VALID,307,VALID,1.40703,
2016-09-11, 16:51:04,VALID,918.745,VALID,0,VALID,64.9058,VALID,672.689,VALID,25.8764,INVALID,360,VALID,0.00195313,
2016-09-11, 16:52:04,VALID,918.751,VALID,0,VALID,63.2362,VALID,675.053,VALID,25.8979,VALID,354,VALID,0,
2016-09-11, 16:53:04,VALID,918.777,VALID,0,VALID,61.864,VALID,679.135,VALID,25.9741,VALID,8,VALID,0.157031,
2016-09-11, 16:54:04,VALID,918.766,VALID,0,VALID,63.0152,VALID,680.425,VALID,26.1518,VALID,15,VALID,0,
2016-09-11, 16:55:04,VALID,918.788,VALID,0,VALID,61.216,VALID,684.185,VALID,26.3471,VALID,284,VALID,0,
2016-09-11, 16:56:04,VALID,918.79,VALID,0,VALID,59.0586,VALID,686.442,VALID,26.3841,VALID,227,VALID,0.00429688,
2016-09-11, 16:57:04,VALID,918.787,VALID,0,VALID,60.1411,VALID,689.02,VALID,26.2279,VALID,258,VALID,0,
2016-09-11, 16:58:04,VALID,918.807,VALID,0,VALID,61.6124,VALID,691.599,VALID,26.2865,VALID,17,VALID,1.05898,
2016-09-11, 16:59:04,VALID,918.779,VALID,0,VALID,62.2757,VALID,695.789,VALID,26.4818,VALID,10,VALID,0.000390625,
2016-09-11, 17:00:04,VALID,918.775,VALID,0,VALID,58.3115,VALID,697.615,VALID,26.4427,VALID,331,VALID,0.476172,
2016-09-11, 17:01:04,VALID,918.778,VALID,0,VALID,61.4371,VALID,699.12,VALID,26.2084,VALID,16,VALID,0,
2016-09-11, 17:02:04,VALID,918.751,VALID,0,VALID,59.981,VALID,702.987,VALID,26.2865,VALID,332,VALID,0.0289063,
2016-09-11, 17:03:04,VALID,918.76,VALID,0,VALID,60.1106,VALID,706.426,VALID,26.267,VALID,352,VALID,0.93125,
2016-09-11, 17:04:04,VALID,918.753,VALID,0,VALID,60.1564,VALID,708.682,VALID,26.2494,VALID,18,VALID,0.705078,
2016-09-11, 17:05:04,VALID,918.776,VALID,0,VALID,63.4497,VALID,710.938,VALID,26.3256,VALID,25,VALID,0,
2016-09-11, 17:06:04,VALID,918.759,VALID,0,VALID,62.7407,VALID,714.699,VALID,26.599,VALID,36,VALID,0,
2016-09-11, 17:07:04,VALID,918.749,VALID,0,VALID,61.2846,VALID,719.104,VALID,26.8919,VALID,21,VALID,0,
2016-09-11, 17:08:04,VALID,918.714,VALID,0,VALID,56.8021,VALID,720.823,VALID,26.9896,VALID,32,VALID,0.926172,
2016-09-11, 17:09:04,VALID,918.78,VALID,0,VALID,58.2963,VALID,724.798,VALID,26.931,VALID,359,VALID,0,
2016-09-11, 17:10:04,VALID,918.742,VALID,0,VALID,58.5555,VALID,727.914,VALID,27.0677,VALID,33,VALID,0.000390625,
2016-09-11, 17:11:04,VALID,918.741,VALID,0,VALID,56.4666,VALID,733.823,VALID,27.1849,VALID,2,VALID,0.526563,
2016-09-11, 17:12:04,VALID,918.711,VALID,0,VALID,57.3357,VALID,736.402,VALID,27.0482,VALID,14,VALID,0,
2016-09-11, 17:13:04,VALID,918.729,VALID,0,VALID,57.2519,VALID,740.914,VALID,26.9896,VALID,2,VALID,1.07852,
2016-09-11, 17:14:04,VALID,918.707,VALID,0,VALID,58.7232,VALID,747.361,VALID,26.931,VALID,29,VALID,0,
2016-09-11, 17:15:04,VALID,918.706,VALID,0,VALID,59.1806,VALID,734.683,VALID,26.9505,VALID,359,VALID,0.375,
2016-09-11, 17:16:04,VALID,918.709,VALID,0,VALID,59.112,VALID,658.722,VALID,26.8919,VALID,39,VALID,0,
2016-09-11, 17:17:04,VALID,918.71,VALID,0,VALID,59.0052,VALID,753.162,VALID,26.7748,VALID,22,VALID,0.541797,